Location: G�kdere
(37.0328°N, 30.9000°E)
Time: 05:36:30
(UTC+00:00)

USA 238 DEB - Pass Details

Date: 03 March 2021
Orbit: 995 x 1217 km, 63.4° (Epoch: 18 April)

Event Time Altitude Azimuth Distance (km) Brightness Sun altitude
Rises 17:47:05 0° 189° (S) 3,697 6.5 -23.6°
Reaches altitude 10° 17:49:45 10° 183° (S) 2,759 5.8 -24.1°
Enters shadow 17:53:22 31° 160° (SSE) 1,685 4.4 -24.8°
